Flag for Norway Weather past 2 weeks in Tromsø, Norway

Now
34 °F

Clear.


Feels Like: 29 °F
Forecast: 25 / 31 °F
Wind: 6 mph from South

Location: Tromso / Langnes

Current Time: Oct 20, 2014 at 11:11:42 PM

Latest Report: Oct 20, 2014 at 10:00 PM


Visibility: 31 mi

Pressure: 29.66 "Hg

Humidity: 67%

Dew point: 24 °F

Location of TromsøLocation

Historic Weather in Tromsø — Graph

°F

Tromsø temperature yesterday

Maximum temperature yesterday: 37 °F (at 3:00 PM)
Minimum temperature yesterday: 26 °F (at 9:00 AM)
Average temperature yesterday: 30 °F

Past Weeks' High & Low Weather Summary

 TemperatureHumidityPressure
High53 °F (Oct 6, 2:00 AM)97% (Oct 7, 6:00 AM)30.53 "Hg (Oct 7, 6:00 AM)
Low23 °F (Oct 20, 5:00 AM)42% (Oct 10, 1:00 PM)29.59 "Hg (Oct 20, 5:00 AM)
Average36 °F79%30.03 "Hg
* Reported Oct 5 9:00 PM — Oct 20 9:00 PM, Tromsø, Weather by CustomWeather, © 2014

Note: Actual official high and low records may vary slightly from our data, if they occured in-between our weather recording intervals... More about our weather records

Advertising

Tromsø weather history for previous 24 hours

 ConditionsComfort  
Time TempWeatherWind HumidityBarometerVisibility
9:00 PM
Oct 20
34 °FClear.7 mph65%29.66 "Hg31 mi
8:00 PM33 °FClear.7 mph65%29.65 "Hg31 mi
7:00 PM33 °FClear.7 mph62%29.65 "Hg31 mi
6:00 PM33 °FClear.6 mph59%29.64 "Hg25 mi
5:00 PM33 °FClear.7 mph61%29.63 "Hg28 mi
4:00 PM35 °FSunny.8 mph60%29.62 "Hg19 mi
3:00 PM36 °FSunny.5 mph53%29.61 "Hg19 mi
2:00 PM36 °FSunny.8 mph58%29.60 "Hg19 mi
1:00 PM36 °FSunny.9 mph54%29.60 "Hg18 mi
12:00 PM35 °FSunny.8 mph56%29.59 "Hg19 mi
11:00 AM34 °FSunny.9 mph59%29.60 "Hg19 mi
10:00 AM31 °FSunny.5 mph71%29.59 "Hg11 mi
9:00 AM25 °FSunny.1 mph77%29.59 "Hg9 mi
8:00 AM25 °FClear.1 mph78%29.59 "Hg8 mi
7:00 AM25 °FClear.2 mph79%29.59 "Hg15 mi
5:00 AM23 °FClear.2 mph84%29.59 "Hg19 mi
4:00 AM24 °FClear.2 mph84%29.59 "Hg18 mi
3:00 AM26 °FClear.1 mph81%29.60 "Hg22 mi
2:00 AM26 °FClear.2 mph78%29.61 "Hg22 mi
1:00 AM31 °FClear.3 mph71%29.62 "Hg19 mi
12:00 AM31 °FClear.6 mph71%29.62 "Hg19 mi
11:00 PM
Oct 19
29 °FClear.2 mph74%29.63 "Hg18 mi
Weather by CustomWeather, © 2014

See weather overviewHow to use our weather pages